カタログに戻る

COSMOS 1275 DEB

運用中PO
NORAD 12962·DEBRIS·🇷🇺 Russia

打ち上げ Jun 4, 1981 から Plesetsk Cosmodrome

Loading…

次のパス (今後24時間)

TLE

最新Source: Space-Track

元期: Sep 14, 2026, 09:52 UTC

1 12962U 81053EH  26257.41153068  .00000988  00000-0  62109-3 0  9993
2 12962  82.9610 302.6845 0026712 211.3465 148.6116 14.03328178273024

AllMySatでCOSMOS 1275 DEBをリアルタイム追跡

Download on the App Store